Simultaneous Nadir Overpasses (SNOs) Predictions

Prediction of SNOs between METOP-A and TERRA Satellite Orbit:

Table of predicted SNOs for the next 14.0 days since TLE Epoch: 5/28/2016
Index Date (METOP-A) Time (METOP-A) Lat,Lon (METOP-A) SZA (METOP-A ) Date (TERRA) Time (TERRA) Lat,Lon (TERRA) SZA (TERRA ) Distance(km) Time Diff (sec)
1 05/30/2016 12:39:53 81.32, 37.83 62.50 05/30/2016 12:40:03 81.32, 37.70 62.49 2.25 10
2 05/30/2016 13:30:32 -81.33,-154.28 117.44 05/30/2016 13:29:29 -81.33,-154.39 117.48 1.88 63
3 06/02/2016 08:14:14 81.32, 104.39 62.13 06/02/2016 08:14:18 81.33, 104.34 62.13 1.08 4
4 06/02/2016 09:04:54 -81.33, -88.10 117.86 06/02/2016 09:03:45 -81.32, -88.11 117.89 0.18 69
5 06/05/2016 02:57:57 -81.32, 2.79 118.30 06/05/2016 02:59:09 -81.31, 2.79 118.26 0.52 72
6 06/
